Wind_Speed
10 10 12 13 14 15 15 16 17 17 18 20 21 22 24 25 26 27 28 29 31 33 34 34 35 35 35 35 36 36 37 37 38 39 40 40 41 42 42 43 45 45 45 45
11 12 13 14 15 16 16 17 18 20 21 21 23 24 25 26 27 27 28 30 31 32 33 34 34 34 34 35 35 36 37 37 38 38 39 40 41 41 41 42 43 43 43 43
12 13 15 16 17 19 19 20 21 22 22 24 25 26 27 27 28 29 30 31 32 33 33 34 35 35 35 35 36 36 36 37 38 39 39 39 40 40 41 41 42 42 42 42
13 15 16 16 18 19 21 23 24 24 25 26 27 29 29 30 31 31 31 32 33 34 34 35 36 36 36 37 37 37 38 38 38 39 39 40 41 41 41 42 42 42 42 42
13 16 17 18 19 20 21 23 24 26 27 28 29 30 31 32 33 33 34 35 35 36 36 37 37 38 38 38 39 39 40 40 40 41 41 42 42 42 42 42 42 42 41 41
13 15 16 18 20 22 23 23 24 26 27 28 30 31 32 33 34 35 36 36 37 37 37 38 38 38 38 39 39 39 40 40 40 41 41 41 41 42 42 42 42 41 41 40
11 13 14 17 19 21 22 23 24 26 27 28 30 31 32 33 34 35 35 36 36 37 37 38 38 38 39 38 38 39 39 39 40 40 40 41 41 41 41 41 40 40 39 38
9 11 12 16 18 19 21 23 25 26 27 28 30 31 32 33 34 35 35 36 36 36 37 37 37 37 38 38 38 38 38 38 38 39 39 39 39 39 39 38 38 38 37 36
8 9 12 14 17 19 21 23 24 26 27 28 30 31 32 33 34 35 35 36 37 37 37 37 37 37 37 37 37 37 37 37 37 37 37 37 38 38 37 37 36 36 35 34
10 10 12 14 16 18 21 23 25 26 27 29 30 31 32 33 34 35 35 35 36 36 37 37 37 37 37 37 37 36 36 36 36 36 36 36 36 36 36 36 35 34 33 33
12 13 14 15 16 18 20 22 24 26 28 29 30 31 33 34 34 35 35 36 36 36 36 36 36 37 36 36 36 36 36 36 36 36 36 36 36 35 35 34 34 33 32 32
15 16 17 17 18 19 21 23 25 27 29 30 31 32 33 34 34 35 36 36 37 37 37 37 37 36 36 37 37 37 37 36 36 36 36 36 35 35 34 34 33 32 31 31
17 18 19 20 21 22 23 24 26 27 29 31 33 33 34 35 35 35 36 36 37 38 38 38 38 38 37 37 37 37 37 37 36 36 36 35 35 34 34 33 33 32 32 32
20 21 22 23 23 25 25 26 27 29 30 32 33 35 36 37 37 37 38 38 38 38 39 39 39 39 39 38 38 38 38 37 37 36 36 35 35 34 33 33 33 32 32 32
23 24 25 26 27 27 28 29 30 30 31 32 33 34 35 36 37 38 38 39 40 39 39 40 41 41 41 40 40 39 39 38 38 37 36 36 35 35 34 33 33 32 32 33
26 27 28 29 30 31 32 32 33 33 34 34 35 35 36 36 37 38 39 40 40 41 41 41 41 42 42 41 41 40 40 39 39 38 37 37 36 36 35 35 34 34 33 34
29 30 31 32 33 35 35 36 36 37 37 37 37 38 38 39 39 39 40 40 41 41 42 42 42 42 42 41 41 41 40 40 40 39 38 38 38 37 36 36 35 35 35 35
31 33 34 35 36 37 38 39 40 40 40 40 40 40 40 40 40 41 40 41 41 41 41 41 41 41 41 41 41 41 41 40 40 40 39 39 38 38 37 36 36 35 35 35
34 35 37 38 40 41 41 42 43 43 43 42 42 42 42 41 41 41 40 39 39 39 39 39 39 39 40 39 39 40 40 40 40 39 39 39 39 38 37 36 36 36 35 35
37 39 40 42 43 44 45 45 45 45 44 44 43 42 42 42 41 41 39 39 38 38 37 37 37 38 38 38 38 38 38 39 39 39 38 38 37 37 36 36 36 36 36 36
40 42 44 46 47 47 48 47 46 46 45 44 43 43 42 41 40 39 38 37 37 37 36 36 36 36 37 37 37 36 36 37 37 37 37 37 36 36 35 35 35 35 34 34
44 46 47 49 50 49 49 48 47 46 45 44 43 42 41 40 39 38 37 37 36 36 35 35 35 35 36 36 36 36 36 36 36 36 35 35 35 34 34 34 33 33 33 33
47 49 51 51 51 51 50 48 47 46 45 44 43 41 40 39 38 36 35 35 35 34 34 34 34 34 35 36 36 36 35 35 35 35 34 34 33 33 33 33 32 32 32 32
50 52 52 52 52 51 50 49 47 45 43 42 40 39 38 37 36 36 35 34 34 33 33 32 33 33 33 34 35 35 35 35 35 34 33 33 33 33 32 32 32 32 32 31
52 53 53 53 52 52 51 49 47 44 42 41 40 39 38 37 35 34 34 33 33 33 32 32 31 31 32 32 33 34 34 34 34 34 33 33 33 33 33 32 31 31 31 30
54 54 53 54 53 53 52 49 46 44 42 40 39 38 37 36 35 34 33 31 31 30 30 29 30 30 30 30 31 32 32 32 33 33 33 32 32 32 32 31 31 30 30 30
55 54 54 54 54 53 51 49 46 44 42 40 37 35 34 33 33 31 30 29 28 27 26 26 26 27 28 29 29 30 30 31 31 31 31 31 31 31 31 30 30 30 29 28
Wind_Direction
229 227 221 224 230 233 235 235 234 235 237 240 242 243 243 242 241 242 242 241 242 244 246 247 248 249 250 251 252 253 254 256 257 259 260 261 263 264 265 266 267 268 270 271
237 234 230 231 233 234 238 241 241 241 243 245 247 248 249 248 247 245 245 244 244 246 247 249 250 251 252 253 254 255 256 257 258 259 261 262 264 266 267 268 269 270 271 272
245 244 242 239 240 240 243 246 246 246 245 247 249 251 252 252 251 250 248 247 248 248 249 249 250 252 253 254 255 256 258 259 260 260 261 263 264 266 268 269 271 272 273 274
247 249 249 248 247 248 248 249 251 252 252 252 253 254 255 254 254 252 251 251 250 250 251 251 252 253 255 256 257 258 259 259 261 262 263 264 265 266 268 270 271 272 273 274
251 251 251 252 253 254 255 254 255 256 256 256 256 256 256 256 256 255 255 255 254 253 253 254 254 255 256 257 257 258 259 259 261 262 263 264 266 267 268 269 270 272 273 274
260 259 257 256 256 257 259 260 260 259 259 258 258 258 258 258 258 258 258 258 257 257 256 256 256 256 257 258 258 258 259 260 261 262 263 264 266 267 268 269 270 271 272 273
273 268 264 264 262 262 262 263 261 262 262 262 261 261 261 261 261 261 260 259 259 258 258 258 257 257 257 258 259 259 260 261 262 263 263 264 265 266 268 269 270 271 272 272
298 284 274 271 269 268 266 265 266 266 266 265 265 264 263 263 263 263 262 261 260 260 259 259 258 258 258 258 259 260 261 262 262 262 263 264 265 266 267 269 269 270 270 271
324 305 292 283 276 273 272 271 271 271 270 269 268 267 266 265 264 264 264 264 263 261 260 260 260 259 259 259 259 260 261 261 261 262 262 263 264 265 267 268 269 269 269 269
334 322 307 295 289 283 279 277 276 276 275 273 272 271 271 269 268 267 266 265 264 263 262 261 261 260 259 259 259 260 260 260 260 261 262 263 264 265 266 266 267 268 268 268
334 327 319 308 298 291 288 284 281 280 279 278 277 276 274 273 271 270 268 266 265 264 263 262 261 261 260 260 260 260 260 260 260 261 261 262 263 264 265 264 266 266 266 266
329 325 320 315 308 300 294 291 288 283 281 280 280 279 278 277 274 272 271 269 267 265 263 262 262 261 261 261 261 260 260 260 260 260 261 262 262 263 263 263 264 264 264 264
324 322 319 315 311 306 300 296 292 288 285 283 281 280 278 277 275 273 272 271 269 266 264 263 262 261 261 261 262 261 260 260 261 261 261 261 262 262 262 262 262 262 263 264
321 320 319 317 314 309 304 301 298 295 291 287 284 282 279 277 275 273 272 271 270 268 265 263 262 261 260 261 262 260 260 260 260 260 261 261 260 260 261 262 262 262 263 263
317 317 316 315 313 310 307 304 301 299 297 294 291 287 283 280 277 274 273 272 271 270 268 265 262 261 260 261 260 259 259 259 259 259 259 259 259 259 260 261 262 262 263 263
314 314 314 314 312 310 307 305 302 300 299 297 295 292 288 284 280 277 275 273 272 271 269 267 264 261 260 260 259 258 258 258 258 258 258 258 258 259 259 260 261 262 262 263
314 314 314 313 312 309 307 305 303 301 299 298 296 294 291 287 284 280 277 275 274 272 269 267 264 262 261 260 258 257 257 257 256 256 257 257 258 258 259 259 260 261 262 263
313 313 313 313 312 310 308 306 304 302 301 299 297 295 293 289 286 283 281 278 276 274 271 268 265 262 261 259 258 256 256 256 255 255 256 256 257 258 258 259 259 260 261 262
313 314 314 313 313 311 309 307 305 304 303 301 298 296 293 290 287 285 283 280 277 274 272 269 266 262 261 259 257 256 255 254 254 254 255 255 256 256 257 258 258 259 260 261
314 315 315 314 314 312 310 308 307 305 304 302 301 298 295 292 290 286 283 281 278 276 273 269 265 261 259 258 256 254 253 252 252 253 254 254 255 255 256 257 258 259 260 261
315 315 315 315 314 313 311 310 308 306 306 305 303 300 297 295 292 289 285 282 278 276 273 269 265 260 258 256 255 253 252 251 251 251 251 252 253 254 254 255 257 259 260 261
316 316 316 316 315 314 313 311 309 308 307 306 303 301 299 297 294 291 288 284 279 276 274 271 265 261 257 255 253 252 251 250 250 250 250 250 251 252 253 254 256 258 259 261
316 317 317 317 316 315 314 312 311 310 308 306 304 302 300 298 296 293 290 285 281 277 273 270 265 260 256 253 251 250 250 249 248 247 248 249 250 252 252 254 255 258 259 261
316 317 317 317 317 316 315 313 312 311 309 307 305 303 302 300 298 295 292 287 283 278 274 270 265 260 256 252 249 248 249 248 247 246 246 247 249 251 253 254 255 257 259 260
317 318 317 317 317 316 316 315 313 311 308 307 306 304 303 302 300 297 294 289 284 279 274 269 265 260 256 252 248 246 247 247 246 245 245 247 249 250 252 254 255 257 258 260
317 318 317 317 317 317 317 316 313 310 308 307 306 304 303 303 302 300 297 292 286 280 274 269 263 259 255 251 248 245 244 244 244 244 245 245 247 249 251 253 255 256 258 259
317 318 318 318 318 318 318 316 314 311 309 308 306 304 303 303 303 302 300 296 290 283 276 270 264 259 253 248 246 243 242 241 241 242 243 244 245 247 249 251 253 254 256 259
Height
5633 5634 5636 5637 5639 5640 5642 5644 5646 5648 5649 5651 5652 5654 5656 5657 5659 5661 5663 5665 5666 5668 5669 5670 5672 5673 5674 5675 5676 5676 5677 5678 5678 5679 5679 5679 5679 5679 5679 5678 5678 5677 5677 5676
5630 5631 5633 5635 5636 5637 5639 5640 5642 5643 5645 5646 5647 5648 5649 5651 5652 5654 5655 5656 5658 5659 5660 5661 5662 5663 5664 5665 5666 5666 5667 5668 5668 5668 5669 5668 5668 5668 5667 5667 5666 5666 5665 5664
5627 5628 5629 5632 5633 5634 5635 5636 5637 5638 5641 5640 5641 5641 5642 5643 5645 5646 5647 5648 5649 5650 5651 5652 5653 5653 5654 5655 5656 5656 5657 5657 5657 5658 5658 5657 5657 5657 5656 5656 5655 5655 5654 5653
5623 5625 5626 5629 5628 5629 5630 5631 5632 5633 5633 5634 5634 5634 5635 5636 5636 5637 5638 5639 5640 5640 5641 5642 5643 5643 5644 5645 5645 5646 5646 5646 5647 5647 5646 5646 5646 5646 5645 5645 5644 5643 5643 5642
5619 5620 5621 5623 5623 5623 5624 5625 5625 5626 5626 5626 5626 5627 5627 5627 5628 5628 5629 5629 5630 5630 5631 5632 5632 5633 5633 5634 5634 5635 5635 5635 5635 5635 5635 5635 5635 5635 5634 5634 5633 5632 5632 5631
5615 5615 5616 5618 5617 5617 5619 5619 5619 5618 5618 5618 5618 5619 5619 5618 5618 5618 5619 5619 5619 5620 5620 5621 5621 5621 5622 5623 5623 5623 5623 5624 5624 5624 5624 5624 5623 5623 5623 5622 5622 5621 5620 5620
5610 5610 5611 5612 5611 5612 5613 5614 5611 5611 5610 5610 5610 5610 5610 5609 5608 5608 5608 5608 5609 5609 5609 5609 5610 5610 5611 5611 5612 5612 5612 5612 5612 5612 5612 5612 5612 5612 5612 5611 5611 5610 5609 5609
5606 5606 5609 5605 5605 5606 5606 5604 5603 5603 5602 5601 5601 5600 5599 5599 5598 5598 5598 5597 5597 5598 5598 5598 5598 5599 5599 5600 5600 5600 5601 5601 5601 5601 5601 5601 5601 5601 5600 5600 5600 5599 5599 5598
5604 5605 5602 5600 5599 5598 5597 5597 5596 5595 5594 5593 5591 5590 5589 5589 5588 5587 5587 5586 5586 5586 5586 5586 5587 5587 5588 5588 5588 5589 5589 5589 5589 5589 5589 5589 5590 5590 5589 5589 5589 5588 5588 5588
5600 5598 5597 5595 5593 5592 5590 5589 5587 5586 5585 5583 5582 5580 5579 5578 5577 5576 5576 5575 5575 5574 5574 5575 5575 5575 5576 5576 5576 5577 5577 5578 5578 5578 5578 5578 5578 5578 5578 5578 5578 5578 5578 5578
5596 5594 5592 5590 5587 5585 5583 5581 5579 5578 5576 5574 5572 5570 5569 5567 5566 5565 5564 5564 5563 5563 5563 5563 5563 5563 5563 5564 5565 5565 5566 5566 5566 5567 5567 5567 5567 5567 5568 5568 5568 5568 5568 5568
5593 5590 5588 5585 5582 5579 5576 5574 5571 5569 5566 5564 5562 5560 5558 5556 5555 5554 5553 5552 5551 5551 5551 5551 5551 5551 5552 5552 5553 5553 5554 5554 5555 5555 5555 5556 5556 5557 5557 5557 5557 5557 5557 5558
5588 5585 5582 5579 5576 5572 5569 5566 5563 5560 5557 5554 5551 5549 5547 5545 5543 5541 5540 5539 5539 5538 5538 5538 5538 5539 5539 5540 5540 5541 5542 5542 5543 5543 5544 5545 5545 5546 5546 5546 5547 5547 5547 5548
5583 5580 5576 5572 5569 5565 5561 5557 5554 5550 5547 5544 5540 5537 5534 5532 5530 5528 5527 5526 5526 5525 5525 5525 5525 5526 5526 5527 5527 5528 5529 5530 5531 5532 5533 5533 5534 5535 5535 5536 5536 5537 5537 5537
5577 5574 5570 5566 5561 5557 5553 5549 5545 5541 5537 5533 5529 5525 5521 5518 5516 5515 5514 5513 5512 5511 5511 5511 5511 5512 5512 5513 5514 5515 5516 5517 5519 5520 5521 5522 5523 5523 5524 5525 5526 5526 5527 5527
5571 5567 5563 5558 5554 5549 5544 5540 5535 5531 5526 5522 5517 5513 5510 5506 5504 5502 5500 5498 5497 5497 5496 5496 5496 5497 5498 5499 5500 5501 5503 5504 5506 5507 5508 5510 5511 5512 5513 5514 5515 5516 5516 5517
5563 5559 5555 5550 5545 5540 5535 5530 5525 5520 5515 5510 5506 5501 5497 5494 5491 5488 5486 5484 5482 5481 5480 5480 5481 5481 5482 5484 5485 5487 5489 5491 5492 5494 5496 5497 5499 5500 5501 5503 5504 5505 5505 5506
5555 5551 5546 5541 5535 5530 5524 5519 5513 5508 5503 5498 5493 5488 5484 5480 5476 5473 5471 5469 5467 5466 5465 5464 5465 5466 5467 5469 5471 5473 5475 5477 5479 5481 5483 5485 5486 5488 5489 5491 5492 5493 5494 5494
5547 5542 5536 5531 5525 5519 5513 5507 5501 5495 5490 5484 5479 5474 5470 5465 5461 5458 5456 5454 5451 5450 5450 5449 5450 5451 5452 5454 5456 5458 5461 5463 5465 5468 5470 5472 5474 5475 5477 5479 5480 5481 5482 5483
5538 5532 5526 5520 5514 5507 5501 5494 5488 5482 5476 5470 5465 5460 5455 5451 5447 5443 5441 5439 5437 5435 5435 5435 5436 5437 5438 5440 5442 5444 5446 5449 5452 5454 5457 5459 5461 5463 5465 5467 5468 5469 5470 5471
5528 5522 5516 5509 5502 5495 5488 5481 5475 5469 5462 5457 5451 5446 5441 5436 5432 5429 5426 5424 5422 5421 5421 5421 5421 5422 5424 5426 5428 5431 5433 5436 5438 5441 5444 5446 5449 5451 5453 5455 5456 5457 5459 5460
5518 5511 5504 5497 5490 5482 5474 5467 5461 5455 5449 5443 5437 5432 5427 5423 5419 5415 5412 5410 5408 5407 5406 5406 5407 5408 5410 5412 5415 5417 5420 5423 5425 5428 5431 5434 5436 5439 5441 5443 5444 5446 5447 5448
5507 5500 5492 5485 5477 5470 5462 5454 5448 5441 5435 5429 5423 5418 5413 5409 5405 5402 5399 5396 5394 5393 5392 5392 5393 5394 5396 5399 5401 5404 5407 5410 5413 5416 5419 5422 5425 5427 5429 5431 5433 5435 5436 5437
5495 5488 5480 5472 5464 5457 5449 5442 5435 5428 5422 5416 5410 5405 5401 5396 5392 5388 5385 5383 5381 5380 5379 5379 5380 5381 5383 5385 5388 5391 5394 5397 5401 5404 5407 5410 5413 5416 5418 5420 5422 5423 5425 5426
5483 5476 5468 5460 5452 5444 5436 5429 5422 5415 5409 5404 5398 5393 5388 5384 5380 5377 5373 5370 5368 5367 5367 5367 5367 5368 5370 5373 5375 5379 5382 5385 5389 5392 5395 5399 5402 5404 5407 5409 5411 5412 5414 5415
5471 5463 5455 5447 5439 5431 5423 5416 5409 5403 5397 5392 5386 5381 5376 5372 5368 5364 5361 5358 5356 5355 5354 5354 5355 5356 5358 5361 5364 5367 5370 5374 5377 5381 5384 5387 5390 5393 5396 5398 5400 5402 5403 5404
5459 5451 5442 5434 5425 5417 5410 5403 5396 5390 5384 5379 5375 5370 5365 5361 5357 5354 5351 5348 5346 5344 5343 5343 5344 5345 5347 5350 5353 5356 5359 5363 5367 5370 5373 5377 5380 5383 5385 5387 5390 5391 5393 5394